Weather in Mecca

Saudi Arabia     21°26′22″N   39°50′42″E
temp.,
°C
wind,
m/s
gust,
m/s
humid.,
%
clouds,
%
prec.,
mm/h
press.,
hPa
HPBL,
m
27 november, sat
sat2700:00+25n23710 0.0 1015139
03:00+25nnw22710 0.0 101475
06:00+24nnw11730 0.0 101440
09:00+27nw11590 0.0 1016355
12:00+32wsw22410 0.0 10141136
15:00+34wsw32320 0.0 10111754
18:00+29wnw67550 0.0 1013396
21:00+27n23590 0.0 1015209
28 november, sun
sun2800:00+26nnw23640 0.0 101483
03:00+24nw11710 0.0 101346
06:00+24nnw22720 0.0 101441
09:00+27nne11550 0.0 1015263
12:00+33sw32340 0.0 1013983
15:00+35wsw53280 0.0 10111704
18:00+29w45520 0.0 1012219
21:00+27n22580 0.0 101492
29 november, mon
mon2900:00+26n22610 0.0 101449
03:00+25wsw11640 0.0 101346
06:00+24sse11670 0.0 101449
09:00+28s11500 0.0 1015276
12:00+33sw32300 0.0 10141161
15:00+35wsw45210 0.0 10112322
18:00+29wsw34510 0.0 1012156
21:00+27n11580 0.0 101588
30 november, tue
tue3000:00+26nne12520 0.0 101458
03:00+25ese12350 0.0 101340
06:00+24sw01420 0.0 101437
09:00+28sse12390 0.0 1015312
12:00+33ssw22224 0.0 10131115
15:00+35wsw32185 0.0 10102003
18:00+28w34565 0.0 1011175
21:00+27nnw22595 0.0 1013108
1 december, wed
wed100:00+25n12595 0.0 101289
03:00+23s11610 0.0 101147
06:00+22s11690 0.0 101236
09:00+27s11460 0.0 1013319
12:00+32sw32270 0.0 10111330
15:00+33sw43220 0.0 10092166
18:00+27w46540 0.0 1010260
21:00+26n11590 0.0 1012135